Location: Newark
(35.0167°N, 135.7667°E)
Time: 07:20:30
(UTC+00:00)

N. Korean satellite - Visible Passes

Search period start: 23 October 2019 00:00
Search period end: 02 November 2019 00:00
Orbit: 455 x 508 km, 97.2° (Epoch: 22 October)

Date Brightness Start Highest point End Pass type
(mag) Time Alt. Az. Time Alt. Az. Time Alt. Az.
24 Oct 9.9 08:58:29 10° SW 09:00:48 17° W 09:03:09 10° NW visible
24 Oct 8.2 20:26:37 10° NNE 20:30:07 41° E 20:33:37 10° S visible
25 Oct 8.2 08:32:11 10° SSW 08:35:24 38° W 08:38:39 10° NNW visible
25 Oct 9.8 20:02:02 10° NE 20:04:43 19° E 20:07:24 10° SE visible
27 Oct 6.9 20:43:52 10° NNE 20:47:34 76° E 20:51:16 10° S visible
28 Oct 9.5 08:50:08 10° SSW 08:52:52 22° W 08:55:37 10° NW visible
28 Oct 8.7 20:18:52 10° NNE 20:22:13 32° E 20:25:35 10° SSE visible
29 Oct 10.1 19:54:33 10° ENE 19:56:48 15° E 19:59:03 10° SE visible
31 Oct 10.1 09:08:43 10° WSW 09:10:21 13° W 09:12:00 10° WNW visible
31 Oct 7.4 20:36:00 10° NNE 20:39:40 58° E 20:43:19 10° S visible
01 Nov 8.9 08:41:52 10° SSW 08:44:53 28° W 08:47:57 10° NW visible
01 Nov 9.2 20:11:08 10° NE 20:14:17 26° E 20:17:26 10° SSE visible
